| time (UTC) | temp F | wind direction | speed MPH | gust MPH | rain 1hr in | rain 24hr in | rain mn in | humidity % | barometer mb |
| 20260510071203 | 71 | 50 | 1.0 | 2.0 | 0.00 | 0.04 | 0.00 | 90 | 1008.2 |
| 20260510070704 | 71 | 123 | 1.0 | 3.0 | 0.00 | 0.04 | 0.00 | 89 | 1008.1 |
| 20260510070203 | 72 | 139 | 0.0 | 5.0 | 0.00 | 0.04 | 0.00 | 89 | 1008.2 |
| 20260510065703 | 72 | 42 | 1.0 | 5.0 | 0.00 | 0.04 | 0.00 | 88 | 1008.0 |
| 20260510065204 | 73 | 50 | 2.0 | 5.0 | 0.00 | 0.04 | 0.00 | 87 | 1008.2 |
| 20260510064704 | 72 | 269 | 1.0 | 2.0 | 0.00 | 0.04 | 0.00 | 88 | 1008.2 |
| 20260510064203 | 73 | 245 | 1.0 | 2.0 | 0.00 | 0.04 | 0.00 | 87 | 1008.3 |
| 20260510063703 | 72 | 94 | 0.0 | 2.0 | 0.00 | 0.04 | 0.00 | 88 | 1008.4 |
| 20260510063204 | 72 | 287 | 1.0 | 2.0 | 0.00 | 0.04 | 0.00 | 89 | 1008.3 |
| 20260510062704 | 72 | 46 | 0.0 | 2.0 | 0.00 | 0.04 | 0.00 | 89 | 1008.2 |
| 20260510061703 | 71 | 122 | 1.0 | 3.0 | 0.00 | 0.04 | 0.00 | 89 | 1008.3 |
| 20260510061203 | 71 | 238 | 1.0 | 3.0 | 0.00 | 0.04 | 0.00 | 89 | 1008.3 |
| 20260510060204 | 71 | 97 | 1.0 | 5.0 | 0.00 | 0.04 | 0.00 | 89 | 1008.3 |
| 20260510055704 | 72 | 52 | 2.0 | 5.0 | 0.00 | 0.04 | 0.00 | 88 | 1008.3 |
| 20260510054704 | 72 | 83 | 1.0 | 3.0 | 0.00 | 0.04 | 0.00 | 87 | 1008.2 |
| 20260510054204 | 72 | 66 | 1.0 | 3.0 | 0.00 | 0.04 | 0.00 | 86 | 1008.3 |
| 20260510053704 | 72 | 54 | 2.0 | 3.0 | 0.00 | 0.04 | 0.00 | 87 | 1008.1 |
| 20260510053204 | 72 | 83 | 2.0 | 2.0 | 0.00 | 0.04 | 0.00 | 87 | 1008.3 |
| 20260510052703 | 72 | 161 | 0.0 | 1.0 | 0.00 | 0.04 | 0.00 | 86 | 1008.2 |
| 20260510052204 | 72 | 274 | 0.0 | 1.0 | 0.00 | 0.04 | 0.00 | 86 | 1008.0 |
| 20260510051704 | 72 | 257 | 0.0 | 1.0 | 0.00 | 0.04 | 0.00 | 85 | 1008.1 |
| 20260510051203 | 73 | 162 | 0.0 | 0.0 | 0.00 | 0.04 | 0.00 | 84 | 1008.0 |
| 20260510050703 | 73 | 149 | 0.0 | 1.0 | 0.00 | 0.04 | 0.00 | 83 | 1008.0 |
| 20260510045703 | 73 | 356 | 1.0 | 2.0 | 0.00 | 0.04 | 0.04 | 83 | 1007.7 |
| 20260510045204 | 74 | 40 | 1.0 | 2.0 | 0.00 | 0.04 | 0.04 | 82 | 1007.7 |
| 20260510044703 | 73 | 162 | 0.0 | 1.0 | 0.00 | 0.04 | 0.04 | 82 | 1007.7 |
| 20260510044204 | 73 | 191 | 0.0 | 1.0 | 0.00 | 0.04 | 0.04 | 83 | 1007.5 |
| 20260510042704 | 73 | 170 | 0.0 | 1.0 | 0.00 | 0.04 | 0.04 | 82 | 1007.7 |
| 20260510042203 | 73 | 172 | 0.0 | 1.0 | 0.00 | 0.04 | 0.04 | 83 | 1007.7 |
| 20260510041203 | 74 | 203 | 0.0 | 3.0 | 0.00 | 0.04 | 0.04 | 82 | 1007.7 |
| 20260510040703 | 74 | 358 | 0.0 | 3.0 | 0.00 | 0.04 | 0.04 | 82 | 1007.6 |
| 20260510040203 | 74 | 39 | 2.0 | 3.0 | 0.00 | 0.04 | 0.04 | 81 | 1007.6 |
| 20260510035704 | 74 | 203 | 0.0 | 2.0 | 0.00 | 0.04 | 0.04 | 81 | 1007.5 |
| 20260510035204 | 74 | 184 | 1.0 | 2.0 | 0.00 | 0.04 | 0.04 | 81 | 1007.4 |
| 20260510034704 | 75 | 257 | 0.0 | 1.0 | 0.00 | 0.04 | 0.04 | 79 | 1007.2 |
| 20260510034203 | 75 | 147 | 0.0 | 1.0 | 0.00 | 0.04 | 0.04 | 79 | 1007.3 |
| 20260510033704 | 75 | 320 | 0.0 | 1.0 | 0.00 | 0.04 | 0.04 | 78 | 1007.3 |
| 20260510033204 | 76 | 330 | 0.0 | 2.0 | 0.00 | 0.04 | 0.04 | 78 | 1007.3 |
| 20260510032703 | 76 | 247 | 0.0 | 2.0 | 0.00 | 0.04 | 0.04 | 77 | 1007.2 |
| 20260510030703 | 76 | 303 | 0.0 | 2.0 | 0.00 | 0.04 | 0.04 | 76 | 1007.0 |
| 20260510025704 | 76 | 152 | 0.0 | 1.0 | 0.00 | 0.04 | 0.04 | 75 | 1006.8 |
| 20260510024704 | 77 | 258 | 0.0 | 2.0 | 0.00 | 0.04 | 0.04 | 75 | 1006.6 |
| 20260510024204 | 77 | 331 | 0.0 | 2.0 | 0.00 | 0.04 | 0.04 | 75 | 1006.7 |
| 20260510023704 | 77 | 45 | 1.0 | 2.0 | 0.00 | 0.04 | 0.04 | 76 | 1006.6 |
| 20260510023204 | 78 | 38 | 0.0 | 2.0 | 0.00 | 0.04 | 0.04 | 74 | 1006.2 |
| 20260510022703 | 78 | 49 | 0.0 | 2.0 | 0.00 | 0.04 | 0.04 | 73 | 1006.0 |
| 20260510022203 | 79 | 29 | 1.0 | 2.0 | 0.00 | 0.04 | 0.04 | 72 | 1006.0 |
| 20260510021703 | 79 | 341 | 0.0 | 2.0 | 0.00 | 0.04 | 0.04 | 72 | 1005.8 |
| 20260510021203 | 79 | 113 | 0.0 | 2.0 | 0.00 | 0.04 | 0.04 | 71 | 1005.8 |
| 20260510020704 | 79 | 49 | 0.0 | 2.0 | 0.00 | 0.04 | 0.04 | 71 | 1005.6 |
| 20260510020204 | 79 | 6 | 0.0 | 3.0 | 0.00 | 0.04 | 0.04 | 70 | 1005.8 |
| 20260510015704 | 80 | 301 | 0.0 | 3.0 | 0.00 | 0.04 | 0.04 | 69 | 1005.4 |
| 20260510015204 | 80 | 69 | 1.0 | 3.0 | 0.00 | 0.04 | 0.04 | 69 | 1005.5 |
| 20260510014704 | 80 | 118 | 1.0 | 3.0 | 0.00 | 0.04 | 0.04 | 69 | 1005.6 |
| 20260510014203 | 80 | 185 | 2.0 | 3.0 | 0.00 | 0.04 | 0.04 | 69 | 1005.3 |
| 20260510013703 | 80 | 164 | 1.0 | 3.0 | 0.00 | 0.04 | 0.04 | 71 | 1005.5 |
| 20260510013204 | 80 | 109 | 1.0 | 2.0 | 0.00 | 0.04 | 0.04 | 71 | 1005.5 |
| 20260510012704 | 80 | 335 | 0.0 | 2.0 | 0.00 | 0.04 | 0.04 | 71 | 1005.3 |
| 20260510012204 | 81 | 340 | 1.0 | 2.0 | 0.00 | 0.04 | 0.04 | 71 | 1005.5 |
| 20260510011204 | 81 | 233 | 0.0 | 2.0 | 0.00 | 0.04 | 0.04 | 70 | 1005.6 |
| 20260510010703 | 82 | 158 | 1.0 | 2.0 | 0.00 | 0.04 | 0.04 | 69 | 1005.7 |
| 20260510010203 | 82 | 195 | 1.0 | 2.0 | 0.00 | 0.04 | 0.04 | 68 | 1005.6 |
| 20260510005204 | 83 | 245 | 1.0 | 5.0 | 0.00 | 0.04 | 0.04 | 67 | 1005.6 |
| 20260510004704 | 83 | 174 | 1.0 | 5.0 | 0.00 | 0.04 | 0.04 | 66 | 1005.7 |
| 20260510004204 | 84 | 184 | 2.0 | 5.0 | 0.00 | 0.04 | 0.04 | 66 | 1005.9 |
| 20260510003704 | 84 | 182 | 2.0 | 6.0 | 0.00 | 0.04 | 0.04 | 65 | 1005.7 |
| 20260510003203 | 84 | 181 | 2.0 | 6.0 | 0.00 | 0.04 | 0.04 | 65 | 1005.5 |
| 20260510001704 | 86 | 179 | 2.0 | 6.0 | 0.00 | 0.04 | 0.04 | 62 | 1005.3 |
| 20260510000703 | 88 | 165 | 1.0 | 2.0 | 0.00 | 0.04 | 0.04 | 55 | 1005.0 |
| 20260510000204 | 89 | 159 | 0.0 | 5.0 | 0.00 | 0.04 | 0.04 | 55 | 1004.9 |
| 20260509235704 | 89 | 159 | 0.0 | 5.0 | 0.00 | 0.04 | 0.04 | 55 | 1004.9 |
| 20260509234704 | 89 | 156 | 1.0 | 3.0 | 0.00 | 0.04 | 0.04 | 56 | 1004.9 |
| 20260509233704 | 88 | 134 | 0.0 | 2.0 | 0.00 | 0.04 | 0.04 | 57 | 1004.8 |
| 20260509232704 | 88 | 144 | 0.0 | 1.0 | 0.00 | 0.04 | 0.04 | 56 | 1004.8 |
| 20260509231704 | 89 | 145 | 0.0 | 2.0 | 0.00 | 0.04 | 0.04 | 54 | 1004.6 |
| 20260509231204 | 90 | 187 | 0.0 | 2.0 | 0.00 | 0.04 | 0.04 | 53 | 1004.9 |
| 20260509230704 | 90 | 156 | 0.0 | 2.0 | 0.00 | 0.04 | 0.04 | 52 | 1004.9 |
| 20260509230203 | 90 | 70 | 0.0 | 2.0 | 0.00 | 0.04 | 0.04 | 52 | 1004.9 |
| 20260509225704 | 91 | 170 | 1.0 | 2.0 | 0.00 | 0.04 | 0.04 | 52 | 1004.7 |
| 20260509224703 | 90 | 155 | 0.0 | 1.0 | 0.00 | 0.04 | 0.04 | 51 | 1004.7 |
| 20260509224204 | 89 | 195 | 0.0 | 1.0 | 0.00 | 0.04 | 0.04 | 53 | 1004.9 |
| 20260509223703 | 89 | 87 | 0.0 | 1.0 | 0.00 | 0.04 | 0.04 | 54 | 1004.8 |
| 20260509223204 | 89 | 204 | 0.0 | 1.0 | 0.00 | 0.04 | 0.04 | 52 | 1005.0 |
| 20260509222704 | 89 | 49 | 0.0 | 1.0 | 0.00 | 0.04 | 0.04 | 51 | 1004.8 |
| 20260509221703 | 89 | 2 | 1.0 | 5.0 | 0.00 | 0.04 | 0.04 | 51 | 1004.7 |
| 20260509221203 | 89 | 54 | 1.0 | 8.0 | 0.00 | 0.04 | 0.04 | 51 | 1004.8 |
| 20260509220704 | 89 | 59 | 3.0 | 8.0 | 0.00 | 0.04 | 0.04 | 52 | 1004.9 |
| 20260509220204 | 89 | 15 | 2.0 | 8.0 | 0.00 | 0.04 | 0.04 | 51 | 1004.8 |
| 20260509215704 | 89 | 339 | 2.0 | 8.0 | 0.00 | 0.04 | 0.04 | 51 | 1004.8 |
| 20260509215204 | 89 | 338 | 2.0 | 5.0 | 0.00 | 0.04 | 0.04 | 52 | 1005.0 |
| 20260509214203 | 89 | 39 | 3.0 | 9.0 | 0.00 | 0.04 | 0.04 | 50 | 1004.9 |
| 20260509213703 | 90 | 17 | 4.0 | 9.0 | 0.00 | 0.04 | 0.04 | 49 | 1004.9 |
| 20260509212703 | 92 | 338 | 2.0 | 5.0 | 0.00 | 0.04 | 0.04 | 48 | 1004.8 |
| 20260509211703 | 91 | 306 | 1.0 | 9.0 | 0.00 | 0.04 | 0.04 | 51 | 1004.9 |
| 20260509211204 | 91 | 316 | 3.0 | 7.0 | 0.00 | 0.04 | 0.04 | 50 | 1004.9 |
| 20260509210704 | 91 | 316 | 1.0 | 3.0 | 0.00 | 0.04 | 0.04 | 51 | 1005.0 |
| 20260509210204 | 90 | 304 | 2.0 | 3.0 | 0.00 | 0.04 | 0.04 | 52 | 1005.0 |
| 20260509205704 | 90 | 325 | 1.0 | 3.0 | 0.00 | 0.04 | 0.04 | 52 | 1005.0 |
| 20260509205203 | 89 | 181 | 2.0 | 5.0 | 0.00 | 0.04 | 0.04 | 52 | 1005.1 |
| 20260509204704 | 89 | 204 | 1.0 | 6.0 | 0.00 | 0.04 | 0.04 | 51 | 1005.2 |
| 20260509204203 | 88 | 264 | 2.0 | 6.0 | 0.00 | 0.04 | 0.04 | 54 | 1005.2 |
| 20260509203704 | 89 | 334 | 2.0 | 6.0 | 0.00 | 0.04 | 0.04 | 52 | 1005.4 |
| 20260509203204 | 89 | 299 | 2.0 | 6.0 | 0.00 | 0.04 | 0.04 | 53 | 1005.3 |
| 20260509202703 | 90 | 223 | 2.0 | 9.0 | 0.00 | 0.04 | 0.04 | 51 | 1005.4 |
| 20260509202203 | 89 | 255 | 2.0 | 9.0 | 0.00 | 0.04 | 0.04 | 54 | 1005.2 |
| 20260509201203 | 88 | 18 | 2.0 | 10.0 | 0.00 | 0.04 | 0.04 | 51 | 1005.3 |
| 20260509200703 | 90 | 345 | 6.0 | 10.0 | 0.00 | 0.04 | 0.04 | 51 | 1005.6 |
| 20260509195704 | 90 | 285 | 2.0 | 7.0 | 0.00 | 0.04 | 0.04 | 52 | 1005.7 |
| 20260509195203 | 89 | 255 | 2.0 | 7.0 | 0.00 | 0.04 | 0.04 | 54 | 1005.8 |
| 20260509194704 | 89 | 320 | 3.0 | 7.0 | 0.00 | 0.04 | 0.04 | 53 | 1005.8 |
| 20260509194204 | 89 | 322 | 1.0 | 3.0 | 0.00 | 0.04 | 0.04 | 53 | 1005.9 |
| 20260509193704 | 89 | 188 | 2.0 | 5.0 | 0.00 | 0.04 | 0.04 | 54 | 1005.8 |
| 20260509193204 | 89 | 24 | 1.0 | 5.0 | 0.00 | 0.04 | 0.04 | 52 | 1006.0 |
| 20260509192703 | 89 | 260 | 1.0 | 3.0 | 0.00 | 0.04 | 0.04 | 55 | 1005.9 |
| 20260509192204 | 88 | 311 | 2.0 | 6.0 | 0.00 | 0.04 | 0.04 | 56 | 1006.0 |
| 20260509191704 | 88 | 233 | 2.0 | 6.0 | 0.00 | 0.04 | 0.04 | 53 | 1006.2 |
| 20260509191204 | 87 | 177 | 2.0 | 6.0 | 0.00 | 0.04 | 0.04 | 53 | 1006.2 |
| 20260509190704 | 87 | 337 | 5.0 | 6.0 | 0.00 | 0.04 | 0.04 | 54 | 1006.2 |
| 20260509190204 | 87 | 346 | 3.0 | 6.0 | 0.00 | 0.04 | 0.04 | 55 | 1006.3 |
| 20260509185704 | 87 | 61 | 1.0 | 8.0 | 0.00 | 0.04 | 0.04 | 56 | 1006.3 |
| 20260509184704 | 87 | 328 | 4.0 | 8.0 | 0.00 | 0.04 | 0.04 | 53 | 1006.3 |
| 20260509184203 | 88 | 326 | 1.0 | 3.0 | 0.00 | 0.04 | 0.04 | 54 | 1006.4 |
| 20260509183704 | 87 | 235 | 2.0 | 3.0 | 0.00 | 0.04 | 0.04 | 56 | 1006.4 |
| 20260509183204 | 86 | 226 | 2.0 | 9.0 | 0.00 | 0.04 | 0.04 | 55 | 1006.5 |
| 20260509182204 | 87 | 352 | 3.0 | 5.0 | 0.00 | 0.04 | 0.04 | 56 | 1006.6 |
| 20260509181704 | 86 | 331 | 2.0 | 3.0 | 0.00 | 0.04 | 0.04 | 55 | 1006.8 |
| 20260509181203 | 86 | 281 | 1.0 | 7.0 | 0.00 | 0.04 | 0.04 | 56 | 1007.0 |
| 20260509180204 | 85 | 341 | 2.0 | 6.0 | 0.00 | 0.04 | 0.04 | 59 | 1007.0 |
| 20260509174203 | 84 | 245 | 1.0 | 6.0 | 0.00 | 0.04 | 0.04 | 61 | 1007.3 |
| 20260509173704 | 84 | 269 | 2.0 | 6.0 | 0.00 | 0.04 | 0.04 | 63 | 1007.4 |
| 20260509173204 | 84 | 350 | 3.0 | 8.0 | 0.00 | 0.04 | 0.04 | 62 | 1007.5 |
| 20260509171703 | 84 | 289 | 1.0 | 6.0 | 0.00 | 0.04 | 0.04 | 63 | 1007.5 |
| 20260509170703 | 83 | 336 | 5.0 | 9.0 | 0.00 | 0.04 | 0.04 | 65 | 1007.6 |
| 20260509170204 | 83 | 337 | 3.0 | 7.0 | 0.00 | 0.04 | 0.04 | 67 | 1007.3 |
| 20260509165703 | 83 | 276 | 1.0 | 7.0 | 0.00 | 0.04 | 0.04 | 67 | 1007.4 |
| 20260509165203 | 83 | 356 | 5.0 | 7.0 | 0.00 | 0.04 | 0.04 | 65 | 1007.4 |
| 20260509164704 | 82 | 254 | 1.0 | 8.0 | 0.00 | 0.04 | 0.04 | 68 | 1007.4 |
| 20260509163704 | 83 | 329 | 5.0 | 8.0 | 0.00 | 0.04 | 0.04 | 67 | 1007.4 |
| 20260509163203 | 84 | 311 | 3.0 | 5.0 | 0.00 | 0.04 | 0.04 | 68 | 1007.1 |
| 20260509161704 | 83 | 28 | 0.0 | 2.0 | 0.00 | 0.04 | 0.04 | 67 | 1006.5 |
| 20260509161203 | 83 | 322 | 0.0 | 3.0 | 0.00 | 0.04 | 0.04 | 68 | 1006.9 |
| 20260509160703 | 82 | 338 | 1.0 | 6.0 | 0.00 | 0.04 | 0.04 | 70 | 1006.9 |
| 20260509160203 | 83 | 271 | 1.0 | 6.0 | 0.00 | 0.04 | 0.04 | 71 | 1006.9 |
| 20260509155704 | 84 | 313 | 2.0 | 5.0 | 0.00 | 0.04 | 0.04 | 67 | 1006.7 |
| 20260509155204 | 84 | 261 | 0.0 | 3.0 | 0.00 | 0.04 | 0.04 | 70 | 1006.6 |
| 20260509154704 | 83 | 151 | 1.0 | 3.0 | 0.00 | 0.04 | 0.04 | 73 | 1006.8 |
| 20260509154204 | 82 | 339 | 1.0 | 3.0 | 0.00 | 0.04 | 0.04 | 76 | 1006.8 |
| 20260509153703 | 81 | 154 | 0.0 | 3.0 | 0.00 | 0.04 | 0.04 | 76 | 1007.0 |
| 20260509153204 | 81 | 300 | 0.0 | 1.0 | 0.00 | 0.04 | 0.04 | 77 | 1006.9 |
| 20260509152704 | 81 | 91 | 0.0 | 2.0 | 0.00 | 0.05 | 0.04 | 79 | 1006.9 |
| 20260509152204 | 80 | 320 | 0.0 | 2.0 | 0.00 | 0.05 | 0.04 | 83 | 1007.2 |
| 20260509151704 | 78 | 333 | 1.0 | 2.0 | 0.00 | 0.05 | 0.04 | 84 | 1006.8 |
| 20260509151204 | 78 | 211 | 0.0 | 2.0 | 0.00 | 0.05 | 0.04 | 83 | 1006.6 |
| 20260509150704 | 78 | 254 | 1.0 | 2.0 | 0.00 | 0.05 | 0.04 | 84 | 1006.8 |
| 20260509150204 | 78 | 172 | 1.0 | 2.0 | 0.00 | 0.05 | 0.04 | 86 | 1006.8 |
| 20260509145704 | 78 | 146 | 0.0 | 3.0 | 0.00 | 0.05 | 0.04 | 87 | 1006.9 |
| 20260509144704 | 78 | 183 | 1.0 | 2.0 | 0.00 | 0.05 | 0.04 | 88 | 1006.9 |
| 20260509144204 | 78 | 254 | 0.0 | 1.0 | 0.00 | 0.05 | 0.04 | 88 | 1007.4 |
| 20260509143204 | 78 | 49 | 0.0 | 1.0 | 0.00 | 0.05 | 0.04 | 88 | 1007.5 |
| 20260509142703 | 78 | 229 | 0.0 | 1.0 | 0.00 | 0.05 | 0.04 | 88 | 1007.5 |
| 20260509142204 | 78 | 140 | 0.0 | 1.0 | 0.00 | 0.05 | 0.04 | 89 | 1007.6 |
| 20260509141704 | 77 | 222 | 0.0 | 1.0 | 0.00 | 0.05 | 0.04 | 88 | 1007.6 |
| 20260509140704 | 77 | 183 | 0.0 | 1.0 | 0.00 | 0.05 | 0.04 | 88 | 1007.5 |
| 20260509140203 | 77 | 321 | 0.0 | 1.0 | 0.00 | 0.05 | 0.04 | 89 | 1007.5 |
| 20260509135704 | 77 | 274 | 0.0 | 1.0 | 0.00 | 0.05 | 0.04 | 89 | 1007.3 |
| 20260509135203 | 77 | 94 | 0.0 | 1.0 | 0.00 | 0.05 | 0.04 | 89 | 1007.4 |
| 20260509134704 | 76 | 69 | 0.0 | 1.0 | 0.00 | 0.05 | 0.04 | 90 | 1007.8 |
| 20260509134203 | 76 | 314 | 0.0 | 1.0 | 0.00 | 0.05 | 0.04 | 90 | 1007.7 |
| 20260509133703 | 76 | 296 | 0.0 | 1.0 | 0.00 | 0.05 | 0.04 | 90 | 1007.5 |
| 20260509133204 | 76 | 171 | 1.0 | 1.0 | 0.00 | 0.05 | 0.04 | 91 | 1007.5 |
| 20260509132704 | 76 | 260 | 0.0 | 1.0 | 0.00 | 0.05 | 0.04 | 90 | 1007.4 |
| 20260509132204 | 76 | 74 | 0.0 | 2.0 | 0.00 | 0.05 | 0.04 | 90 | 1007.2 |
| 20260509131703 | 76 | 349 | 1.0 | 5.0 | 0.00 | 0.05 | 0.04 | 89 | 1007.1 |
| 20260509131203 | 76 | 343 | 2.0 | 5.0 | 0.00 | 0.05 | 0.04 | 89 | 1007.0 |
| 20260509130703 | 76 | 356 | 3.0 | 7.0 | 0.00 | 0.05 | 0.04 | 88 | 1007.2 |
| 20260509130203 | 76 | 336 | 3.0 | 7.0 | 0.00 | 0.05 | 0.04 | 88 | 1007.4 |
| 20260509125703 | 76 | 330 | 3.0 | 7.0 | 0.00 | 0.06 | 0.04 | 87 | 1007.0 |
| 20260509125204 | 76 | 333 | 4.0 | 12.0 | 0.00 | 0.06 | 0.04 | 87 | 1007.0 |
| 20260509124704 | 76 | 328 | 5.0 | 12.0 | 0.00 | 0.06 | 0.04 | 86 | 1007.1 |
| 20260509124204 | 76 | 336 | 5.0 | 15.0 | 0.00 | 0.06 | 0.04 | 85 | 1006.8 |
| 20260509123204 | 76 | 335 | 7.0 | 15.0 | 0.01 | 0.06 | 0.04 | 91 | 1006.9 |
| 20260509122703 | 76 | 331 | 4.0 | 7.0 | 0.01 | 0.06 | 0.04 | 89 | 1006.8 |
| 20260509121704 | 76 | 155 | 4.0 | 10.0 | 0.02 | 0.06 | 0.04 | 88 | 1005.0 |
| 20260509121204 | 75 | 146 | 3.0 | 15.0 | 0.02 | 0.06 | 0.04 | 91 | 1003.9 |
| 20260509120703 | 75 | 159 | 6.0 | 15.0 | 0.02 | 0.06 | 0.04 | 94 | 1003.9 |
| 20260509120204 | 75 | 160 | 5.0 | 10.0 | 0.02 | 0.06 | 0.04 | 96 | 1004.0 |
| 20260509115704 | 75 | 156 | 3.0 | 9.0 | 0.03 | 0.06 | 0.04 | 96 | 1004.4 |
| 20260509115203 | 75 | 156 | 3.0 | 9.0 | 0.03 | 0.06 | 0.04 | 96 | 1004.1 |
| 20260509114704 | 75 | 152 | 4.0 | 8.0 | 0.03 | 0.06 | 0.04 | 97 | 1004.8 |
| 20260509114204 | 75 | 129 | 2.0 | 6.0 | 0.03 | 0.06 | 0.04 | 97 | 1005.4 |
| 20260509113704 | 75 | 120 | 1.0 | 5.0 | 0.03 | 0.05 | 0.03 | 97 | 1006.5 |
| 20260509113204 | 75 | 133 | 2.0 | 5.0 | 0.03 | 0.05 | 0.03 | 97 | 1007.7 |
| 20260509112704 | 75 | 161 | 1.0 | 5.0 | 0.03 | 0.05 | 0.03 | 97 | 1007.9 |
| 20260509112204 | 75 | 196 | 3.0 | 5.0 | 0.02 | 0.04 | 0.02 | 98 | 1007.7 |
| 20260509111204 | 75 | 176 | 1.0 | 3.0 | 0.02 | 0.04 | 0.02 | 98 | 1008.0 |
| 20260509110204 | 75 | 51 | 2.0 | 3.0 | 0.01 | 0.03 | 0.01 | 98 | 1007.4 |
| 20260509105704 | 75 | 326 | 1.0 | 5.0 | 0.01 | 0.03 | 0.01 | 97 | 1007.5 |
| 20260509105203 | 75 | 316 | 2.0 | 7.0 | 0.01 | 0.03 | 0.01 | 98 | 1007.2 |
| 20260509104704 | 75 | 332 | 4.0 | 7.0 | 0.01 | 0.03 | 0.01 | 98 | 1006.9 |
| 20260509103704 | 75 | 144 | 0.0 | 3.0 | 0.00 | 0.02 | 0.00 | 98 | 1006.4 |
| 20260509103203 | 75 | 354 | 2.0 | 3.0 | 0.00 | 0.02 | 0.00 | 98 | 1006.6 |
| 20260509102704 | 75 | 176 | 2.0 | 3.0 | 0.00 | 0.02 | 0.00 | 98 | 1006.2 |
| 20260509101704 | 75 | 346 | 0.0 | 2.0 | 0.00 | 0.02 | 0.00 | 98 | 1006.6 |
| 20260509101203 | 75 | 358 | 1.0 | 2.0 | 0.00 | 0.02 | 0.00 | 97 | 1006.7 |
| 20260509100704 | 75 | 91 | 0.0 | 2.0 | 0.00 | 0.02 | 0.00 | 97 | 1006.5 |
| 20260509100203 | 75 | 206 | 1.0 | 2.0 | 0.00 | 0.02 | 0.00 | 97 | 1006.5 |
| 20260509095704 | 75 | 164 | 0.0 | 1.0 | 0.00 | 0.02 | 0.00 | 97 | 1006.1 |
| 20260509095203 | 75 | 319 | 0.0 | 3.0 | 0.00 | 0.02 | 0.00 | 97 | 1006.0 |
| 20260509094703 | 75 | 178 | 0.0 | 3.0 | 0.00 | 0.02 | 0.00 | 97 | 1006.1 |
| 20260509094203 | 75 | 196 | 0.0 | 2.0 | 0.00 | 0.02 | 0.00 | 97 | 1006.2 |
| 20260509093704 | 75 | 205 | 0.0 | 2.0 | 0.00 | 0.02 | 0.00 | 97 | 1006.1 |
| 20260509093203 | 75 | 32 | 0.0 | 1.0 | 0.00 | 0.02 | 0.00 | 97 | 1006.1 |
| 20260509092704 | 75 | 138 | 0.0 | 1.0 | 0.00 | 0.02 | 0.00 | 97 | 1006.1 |
| 20260509091703 | 75 | 346 | 0.0 | 1.0 | 0.00 | 0.02 | 0.00 | 97 | 1005.7 |
| 20260509091204 | 75 | 64 | 0.0 | 1.0 | 0.00 | 0.02 | 0.00 | 97 | 1005.9 |
| 20260509090704 | 75 | 152 | 0.0 | 2.0 | 0.00 | 0.02 | 0.00 | 97 | 1006.1 |
| 20260509090203 | 75 | 186 | 0.0 | 2.0 | 0.00 | 0.02 | 0.00 | 97 | 1006.0 |
| 20260509085704 | 75 | 182 | 1.0 | 2.0 | 0.00 | 0.02 | 0.00 | 97 | 1006.1 |
| 20260509085203 | 75 | 210 | 0.0 | 1.0 | 0.00 | 0.02 | 0.00 | 97 | 1005.8 |
| 20260509084203 | 75 | 20 | 0.0 | 1.0 | 0.00 | 0.02 | 0.00 | 97 | 1005.7 |
| 20260509083704 | 75 | 219 | 0.0 | 1.0 | 0.00 | 0.02 | 0.00 | 97 | 1005.8 |
| 20260509083203 | 75 | 231 | 0.0 | 1.0 | 0.00 | 0.02 | 0.00 | 97 | 1005.7 |
| 20260509082704 | 75 | 348 | 0.0 | 3.0 | 0.00 | 0.02 | 0.00 | 97 | 1005.8 |
| 20260509082204 | 75 | 241 | 1.0 | 3.0 | 0.00 | 0.02 | 0.00 | 97 | 1005.7 |
| 20260509081704 | 75 | 52 | 1.0 | 3.0 | 0.00 | 0.02 | 0.00 | 97 | 1005.8 |
| 20260509081204 | 75 | 94 | 0.0 | 2.0 | 0.00 | 0.02 | 0.00 | 96 | 1005.9 |
| 20260509080704 | 75 | 54 | 1.0 | 2.0 | 0.00 | 0.02 | 0.00 | 96 | 1005.7 |
| 20260509080204 | 75 | 224 | 0.0 | 3.0 | 0.00 | 0.02 | 0.00 | 97 | 1005.9 |
| 20260509075704 | 75 | 59 | 0.0 | 3.0 | 0.00 | 0.02 | 0.00 | 97 | 1006.1 |
| 20260509075203 | 75 | 73 | 2.0 | 3.0 | 0.00 | 0.02 | 0.00 | 97 | 1006.0 |
| 20260509074204 | 74 | 32 | 0.0 | 1.0 | 0.00 | 0.02 | 0.00 | 96 | 1006.4 |
| 20260509073704 | 74 | 26 | 0.0 | 1.0 | 0.00 | 0.02 | 0.00 | 96 | 1006.4 |
| 20260509072703 | 74 | 51 | 0.0 | 1.0 | 0.00 | 0.02 | 0.00 | 95 | 1006.4 |
| 20260509072204 | 74 | 325 | 0.0 | 0.0 | 0.00 | 0.02 | 0.00 | 95 | 1006.6 |
| 20260509071703 | 74 | 49 | 0.0 | 1.0 | 0.00 | 0.02 | 0.00 | 95 | 1006.7 |